This is the latest recevied weather packets stored in our database for station/object ES0THZ-13. If no packets are shown the sender has not sent any weather packets the latest 10 day(s).
| Time | Temp. | Humidity | Pressure | Rain* | Wind** | Luminosity | Snow |
|---|---|---|---|---|---|---|---|
| 1777513121 | 5.56° C | 72% | 1019.1 hPa | - | - | - | - |
| 1777511976 | 5.56° C | 72% | 1020.9 hPa | - | - | - | - |
| 1777510866 | 5° C | 71% | 1019.9 hPa | - | - | - | - |
| 1777509856 | 5.56° C | 71% | 1019.2 hPa | - | - | - | - |
| 1777508731 | 5.56° C | 70% | 1021.3 hPa | - | - | - | - |
| 1777507676 | 5.56° C | 69% | 1021.1 hPa | - | - | - | - |
| 1777506631 | 5° C | 69% | 1020.5 hPa | - | - | - | - |
| 1777505606 | 5° C | 68% | 1021 hPa | - | - | - | - |
| 1777504481 | 5° C | 67% | 1021.7 hPa | - | - | - | - |
| 1777503381 | 5° C | 66% | 1021.1 hPa | - | - | - | - |
| 1777502226 | 5° C | 66% | 1021.4 hPa | - | - | - | - |
| 1777501246 | 5° C | 66% | 1021.6 hPa | - | - | - | - |
| 1777500131 | 5° C | 66% | 1021.2 hPa | - | - | - | - |
| 1777499106 | 5° C | 67% | 1022.4 hPa | - | - | - | - |
| 1777498041 | 4.44° C | 67% | 1020.9 hPa | - | - | - | - |
| 1777496886 | 3.89° C | 67% | 1021.3 hPa | - | - | - | - |
| 1777495751 | 3.89° C | 67% | 1021.1 hPa | - | - | - | - |
| 1777494761 | 3.89° C | 66% | 1020.7 hPa | - | - | - | - |
| 1777493691 | 3.89° C | 66% | 1022.4 hPa | - | - | - | - |
| 1777492616 | 3.33° C | 65% | 1022.4 hPa | - | - | - | - |
| 1777491486 | 3.33° C | 64% | 1023.3 hPa | - | - | - | - |
| 1777490456 | 3.33° C | 63% | 1021.9 hPa | - | - | - | - |
| 1777489356 | 3.33° C | 62% | 1020.5 hPa | - | - | - | - |
| 1777487181 | 3.89° C | 59% | 1021.6 hPa | - | - | - | - |
| 1777485056 | 4.44° C | 57% | 1021.7 hPa | - | - | - | - |
* Rain since midnight (hover to see other rain measurements)
** Current wind speed in m/s (hover to see current wind gust speed)